Tracking 35274 objects as of 10-Sep-2026
HD Live streaming from Space Station
objects crossing your sky now

COSMOS 1417

Track COSMOS 1417 now!
10-day predictions
COSMOS 1417 is classified as:


NORAD ID: 13617
Int'l Code: 1982-102A
Launch date: October 19, 1982
Source: Commonwealth of Independent States (former USSR) (CIS)
Launch site: PLESETSK MISSILE AND SPACE COMPLEX (PKMTR)
Your satellite tracking list
Your tracking list is empty




NASA's NSSDC Master Catalog

Two Line Element Set (TLE):
1 13617U 82102A   26252.91622319  .00000043  00000-0  28219-4 0  9994
2 13617  82.9706 196.4749 0034063 186.5661 234.3345 13.75624768202604
Source of the keplerian elements: AFSPC